Home > Weather > Germering > Past weeks

Flag for Germany Past Weather in Germering, Bavaria, Germany — Yesterday and Last 2 Weeks

Now
59 °F

Overcast.


Feels Like: 58 °F
Forecast: 56 / 68 °F
Wind: 6 mph from Northwest

Location: Landsberg

Current Time: Jun 26, 2016 at 3:04:57 AM

Latest Report: Jun 26, 2016 at 2:20 AM


Visibility: N/A

Pressure: 30.09 "Hg (28.23 "Hg at 538m altitude)

Humidity: 94%

Dew Point: 57 °F

Location of GermeringLocation

Past Weather in Germering — Graph

°F

Germering Temperature Yesterday

Maximum temperature yesterday: 79 °F (at 2:20 PM)
Minimum temperature yesterday: 61 °F (at 11:20 PM)
Average temperature yesterday: 68 °F

High & Low Weather Summary for the Past Weeks

 TemperatureHumidityPressure
High88 °F (Jun 24, 4:20 PM)100% (Jun 14, 4:20 AM)30.30 "Hg (Jun 14, 4:20 AM)
Low48 °F (Jun 17, 5:20 AM)40% (Jun 23, 1:20 PM)29.59 "Hg (Jun 14, 2:20 PM)
Average61 °F76%29.97 "Hg
* Reported Jun 11 1:20 AM — Jun 26 1:20 AM, Germering, Weather by CustomWeather, © 2016

Note: Actual official high and low records may vary slightly from our data, if they occured in-between our weather recording intervals... More about our weather records

Advertising

Germering Weather History for the Previous 24 Hours

Scroll right to see more
 ConditionsComfort  
Time TempWeatherWind HumidityBarometerVisibility
1:20 AM
Sun, Jun 26
61 °FPassing clouds.5 mph88%30.09 "HgN/A
12:20 AM61 °FMostly cloudy.5 mph88%30.09 "HgN/A
11:20 PM
Sat, Jun 25
61 °FPassing clouds.3 mph88%30.09 "HgN/A
10:20 PM63 °FPartly cloudy.7 mph83%30.09 "HgN/A
9:20 PM63 °FPartly sunny.13 mph88%30.04 "HgN/A
8:20 PM64 °FSprinkles. Partly sunny.10 mph83%30.04 "HgN/A
7:20 PM66 °FBroken clouds.16 mph78%29.98 "HgN/A
6:20 PM64 °FPartly sunny.9 mph88%29.98 "HgN/A
5:20 PM64 °FSprinkles. Broken clouds.2 mph94%29.95 "HgN/A
4:20 PM77 °FThunderstorms. Partly sunny.6 mph54%29.95 "Hg6 mi
3:20 PM79 °FScattered clouds.5 mph51%29.92 "HgN/A
2:20 PM79 °FPassing clouds.5 mph54%29.92 "HgN/A
1:20 PM75 °FPassing clouds.6 mph57%29.95 "HgN/A
12:20 PM75 °FPassing clouds.8 mph54%29.98 "HgN/A
11:20 AM75 °FPassing clouds.8 mph54%29.98 "HgN/A
10:20 AM73 °FPassing clouds.5 mph57%29.98 "HgN/A
9:20 AM70 °FPassing clouds.7 mph64%29.98 "HgN/A
8:20 AM66 °FScattered clouds.9 mph78%30.01 "HgN/A
7:20 AM63 °FScattered clouds.10 mph83%30.01 "HgN/A
6:20 AM63 °FScattered clouds.5 mph88%29.98 "HgN/A
5:20 AM63 °FPassing clouds.5 mph88%29.95 "HgN/A
4:20 AM64 °FPassing clouds.5 mph83%29.95 "HgN/A
3:20 AM64 °FPartly cloudy.6 mph88%29.98 "HgN/A
Weather by CustomWeather, © 2016

See weather overviewHow to use our weather pages